Skip Page Navigation
NASA JPL Caltech
NASA Logo - Jet Propulsion Laboratory + View the NASA Portal
+ Center for Near-Earth Object Studies
JPL Home Earth Solar System Stars & Galaxies Technology
JPL Solar System Dynamics
BODIES ORBITS EPHEMERIDES TOOLS PHYSICAL DATA DISCOVERY FAQ SITE MAP
JPL Small-Body Database Browser
Search: [ help ]  
(2020 TF6)
Classification: Apollo [NEO]          SPK-ID: 54065914
Ephemeris | Orbit Diagram | Orbital Elements | Mission Design | Physical Parameters | Close-Approach Data ]

[ hide orbit diagram ]

For accurate long-term ephemerides, please instead use our Horizons system.This orbit viewer was implemented using two-body methods, and hence should not be used for determining accurate long-term trajectories (over several years or decades) or planetary encounter circumstances.


[ revert to old Java-based viewer ]

Orbital Elements at Epoch 2459000.5 (2020-May-31.0) TDB
Reference: JPL 5 (heliocentric ecliptic J2000)
 Element Value Uncertainty (1-sigma)   Units 
e .5099914157729993 0.00048861  
a 1.630861922959965 0.0013671 au
q .799136341939336 0.00012694 au
i 2.874228745355311 0.0024009 deg
node 207.6730669776161 0.0001775 deg
peri 244.3535900496863 0.00038878 deg
M 271.5400865127677 0.11723 deg
tp 2459187.425360089832
(2020-Dec-03.92536009)
0.012668 TDB
period 760.7189175247421
2.08
0.95656
0.002619
d
yr
n .4732365551935826 0.00059506 deg/d
Q 2.462587503980593 0.0020644 au
  Orbit Determination Parameters
   # obs. used (total)      51  
   data-arc span      3 days  
   first obs. used      2020-10-15  
   last obs. used      2020-10-18  
   planetary ephem.      DE431  
   SB-pert. ephem.      SB431-N16  
   condition code      7  
   norm. resid. RMS      .43223  
   source      ORB  
   producer      Otto Matic  
   solution date      2020-Oct-21 07:41:13  

Additional Information
 Earth MOID = .000898124 au 
 Jupiter MOID = 2.76725 au 
 T_jup = 4.152 
[ show covariance matrix ]

Ephemeris | Orbit Diagram | Orbital Elements | Mission Design | Physical Parameters | Close-Approach Data ]

Physical Parameter Table
Parameter Symbol Value Units Sigma Reference Notes
absolute magnitude H 27.581   .45588 5 autocmod 2.8

[ show close-approach data ]
Ephemeris | Orbit Diagram | Orbital Elements | Mission Design | Physical Parameters | Close-Approach Data ]
ABOUT SSD CREDITS/AWARDS PRIVACY/COPYRIGHT GLOSSARY LINKS
FirstGov 2020-Oct-29 18:39 UT
(server date/time)  
NASA Home Page
Site Manager:   Ryan S. Park
Webmaster  Alan B. Chamberlin